Regional Weather Roundup
Issued by NWS Kansas City/Pleasant Hill, MO

Home | Current Version | Previous Version | Graphics & Text | Print | Product List | Glossary Off
Versions: 1 2 3 4 5 6 7 8 9 10 11 12 13 14 15 16 17 18 19 20 21 22 23 24 25 26 27 28 29 30 31 32 33 34 35 36 37 38 39 40 41 42 43 44 45 46 47 48 49 50

000
ASUS43 KEAX 011611
RWREAX

WEATHER ROUNDUP FOR EASTERN KANSAS AND NORTHWEST MISSOURI
NATIONAL WEATHER SERVICE KANSAS CITY/PLEASANT HILL MO
1000 AM CST SUN FEB 01 2015

KSZ040-057-103>105-MOZ028-029-037-043-011700-
...KANSAS CITY METROPOLITAN AREA...

CITY           SKY/WX    TMP DP  RH WIND       PRES   REMARKS
K.C. INTL      LGT SNOW  32  32 100 NW13      29.76R FOG     WCI  22
K.C. DOWNTOWN  FLURRIES  34  32  92 NW10      29.76R WCI  26
LEES SUMMIT    CLOUDY    33  32  96 NW14      29.74R WCI  23
OLATHE - IXD   FLURRIES  33  32  96 NW16      29.78R WCI  23
OLATHE - OJC   LGT SNOW  34  33  96 NW16G22   29.75R FOG     WCI  24
LAWRENCE       LGT SNOW  33  31  92 NW15      29.81R FOG     WCI  23

$$

MOZ001>008-011>017-020>025-030>033-038>040-044>046-053-054-011700-
...NORTHERN AND CENTRAL MISSOURI...

CITY           SKY/WX    TMP DP  RH WIND       PRES   REMARKS
ST. JOSEPH     LGT SNOW  33  32  96 NW14      29.79R VSB 1   WCI  23
MOSBY          FLURRIES  34  34 100 NW7       29.75R WCI  28
WARRENSBURG    LGT RAIN  34  32  93 W7        29.73R WCI  28
WHITEMAN AFB   DRIZZLE   37  37  99 NW6       29.70S FOG     WCI  32
CLINTON        CLOUDY    41  41 100 W6        29.71F FOG
SEDALIA        LGT RAIN  37  36  96 CALM      29.70F FOG
WARSAW         NOT AVBL
MARSHALL       CLOUDY    36  36 100 CALM      29.72  FOG
CHILLICOTHE      N/A     34  32  92 N3        29.74S
MOBERLY        MIX PCPN  36  32  87 CALM      29.71S
KIRKSVILLE     LGT SNOW  33  33 100 NE6       29.72S FOG     WCI  28

$$

MOZ041-047>049-056>058-063>065-088>090-097-011700-
...EASTERN AND SOUTHERN MISSOURI...

CITY           SKY/WX    TMP DP  RH WIND       PRES   REMARKS
ST. LOUIS INTL CLOUDY    38  35  89 SE6       29.72F FOG     WCI  33
SPIRIT OF STL  CLOUDY    37  36  96 CALM      29.71F FOG
COLUMBIA       LGT RAIN  35  35 100 SW3       29.70F FOG
JEFFERSON CITY LGT RAIN  38  37  97 CALM      29.71F FOG
MEXICO         LGT RAIN N/A N/A N/A SW3       29.71S
HANNIBAL       SNOW      36  34  93 CALM      29.71S VSB 1/2
ROLLA          LGT RAIN  38  37  97 SW8       29.68S FOG     WCI  32
LEBANON        DRIZZLE   41  39  93 W9        29.70F
OSAGE BEACH    CLOUDY    39  37  93 SW5       29.71S
SPRINGFIELD    LGT RAIN  44  41  89 W13       29.71S FOG
BRANSON        CLOUDY    46  45  93 W16G24    29.74S
NEVADA         CLOUDY    41  39  93 W13G20    29.75R WCI  34
JOPLIN         LGT RAIN  41  39  93 W24G36    29.77R WCI  31
WEST PLAINS    LGT RAIN  45  43  93 SW10      29.72F FOG

$$

IAZ060-094-KSZ022-034>040-054-083-096-NEZ052-066-093-011700-
...KANSAS...SOUTHEAST NEBRASKA AND IOWA...

CITY           SKY/WX    TMP DP  RH WIND       PRES   REMARKS
TOPEKA         LGT SNOW  31  28  89 NW18G32   29.85R FOG     WCI  19
MANHATTAN      LGT SNOW  22  17  81 N17G35    29.98R WCI   8
EMPORIA        CLOUDY    26  22  84 NW24G35   29.91R WCI  11
CHANUTE        CLOUDY    34  31  88 NW22G35   29.85R WCI  22
WICHITA        CLOUDY    25  18  74 N32G43    30.01R WCI   8
OMAHA          SNOW      20  17  88 N31G37    29.97R VSB 1/2 WCI   1
LINCOLN        SNOW      16  12  84 N31G39    30.04R VSB 1/2 WCI  -4
FALLS CITY     HVY SNOW  26  23  88 NW20G28   29.87R VSB 1/4 WCI  12
LAMONI         LGT SNOW  32  31  96 N10       29.74S FOG     WCI  24
DES MOINES     SNOW      29  25  85 NE22G28   29.84R VSB 1/2 WCI  15

$$




USA.gov is the U.S. government's official web portal to all federal, state and local government web resources and services.